Location: Newark
(45.8378°N, 5.5389°E)
Time: 23:26:08
(UTC+00:00)

YUBILEINY - Pass Details

Date: 21 December 2019
Orbit: 1478 x 1509 km, 82.5° (Epoch: 21 January)

Event Time Altitude Azimuth Distance (km) Brightness Sun altitude
Rises 21:18:29 0° 222° (SW) 4,604 ? -54.4°
Enters shadow 21:19:19 - 224° (SW) 4,348 ? -54.5°
Exits shadow 21:38:12 - 360° (N) 3,947 ? -57.3°
Sets 21:40:25 0° 6° (N) 4,610 ? -57.7°
